Location: Leipzig
(51.3392°N, 12.3528°E)
Time: 07:57:54
(UTC+02:00)

ISS - Visible Passes

Search period start: 09 May 2021 00:00
Search period end: 19 May 2021 00:00
Orbit: 418 x 421 km, 51.6° (Epoch: 08 May)

Date Brightness Start Highest point End Pass type
(mag) Time Alt. Az. Time Alt. Az. Time Alt. Az.
09 May -2.8 02:03:26 37° ESE 02:03:26 37° ESE 02:05:44 10° E visible
09 May -3.7 03:36:23 14° W 03:39:11 83° N 03:42:35 10° E visible
10 May -1.4 01:17:27 16° E 01:17:27 16° E 01:18:15 10° E visible
10 May -3.8 02:50:22 34° W 02:51:44 87° N 02:55:08 10° E visible
10 May -3.8 04:25:12 10° W 04:28:35 79° SSW 04:31:58 10° ESE visible
11 May -3.9 02:04:21 83° SE 02:04:21 83° SE 02:07:41 10° E visible
11 May -3.8 03:37:46 10° W 03:41:09 90° ESE 03:44:33 10° E visible
12 May -2.5 01:18:16 32° E 01:18:16 32° E 01:20:15 10° E visible
12 May -3.8 02:51:12 17° W 02:53:42 84° N 02:57:06 10° E visible
12 May -3.5 04:27:10 10° W 04:30:27 49° SSW 04:33:44 10° SE visible
13 May -1.4 00:32:06 15° E 00:32:06 15° E 00:32:48 10° E visible
13 May -3.8 02:05:01 37° W 02:06:15 83° N 02:09:39 10° E visible
13 May -3.8 03:39:42 10° W 03:43:04 64° SSW 03:46:25 10° ESE visible
14 May -3.8 01:18:37 80° W 01:18:48 87° N 01:22:11 10° E visible
14 May -3.9 02:52:16 10° W 02:55:39 79° SSW 02:59:01 10° ESE visible
14 May -2.7 04:29:17 10° W 04:32:10 26° SSW 04:35:03 10° SSE visible
14 May -3.0 22:51:46 10° SSW 22:54:46 30° SSE 22:57:47 10° E visible
15 May -3.9 00:27:59 10° WSW 00:31:21 84° S 00:34:45 10° E visible
15 May -3.9 02:04:49 10° W 02:08:12 90° S 02:11:36 10° E visible
15 May -3.2 03:41:42 10° W 03:44:51 36° SSW 03:47:59 10° SE visible
15 May -2.5 22:04:50 10° SSW 22:07:29 22° SE 22:10:08 10° E visible
15 May -3.9 23:40:34 10° WSW 23:43:55 70° SSE 23:47:17 10° E visible
16 May -3.8 01:17:22 10° W 01:20:45 84° N 01:24:08 10° E visible
16 May -3.6 02:54:13 10° W 02:57:30 49° SSW 03:00:47 10° SE visible
16 May -1.9 04:32:04 10° WSW 04:33:43 13° SW 04:35:22 10° SSW visible
16 May -3.7 22:53:12 10° WSW 22:56:31 55° SSE 22:59:50 10° E visible
17 May -3.8 00:29:54 10° W 00:33:18 83° N 00:36:41 10° E visible
17 May -3.9 02:06:45 10° W 02:10:06 64° SSW 02:13:27 10° ESE visible
17 May -2.3 03:44:02 10° W 03:46:29 19° SW 03:48:56 10° S visible
17 May -3.4 22:05:57 10° SW 22:09:08 41° SSE 22:12:21 10° E visible
17 May -3.8 23:42:27 10° W 23:45:49 87° NNW 23:49:13 10° E visible
18 May -3.9 01:19:18 10° W 01:22:41 78° SSW 01:22:56 72° SE visible
18 May -3.9 22:55:00 10° WSW 22:58:22 84° S 23:01:46 10° E visible
